Platteville, WI

5:37 PM CST on November 18, 2019 (GMT -0600)
Platteville Municipal

Weather History for KPVB - October, 2019

Change the Weather History Date:

Monday, October 21, 2019

  Actual Average (KDBQ) Record (KDBQ)
Temperature  
Mean Temperature 53 °F -  
Max Temperature 61 °F 59 °F 86 °F (1947)
Min Temperature 45 °F 39 °F 16 °F (1952)
Degree Days  
Heating Degree Days 12    
Growing Degree Days 3 (Base 50)    
Moisture  
Dew Point 48 °F    
Average Humidity 85    
Maximum Humidity 100    
Minimum Humidity 58    
Precipitation  
Precipitation 0.40 in - - ()
Sea Level Pressure  
Sea Level Pressure 29.45 in    
Wind  
Wind Speed 15 mph ()    
Max Wind Speed 26 mph    
Max Gust Speed 39 mph    
Visibility 9.2 miles    
Events      
Averages and records for this station are not official NWS values.
T = Trace of Precipitation, MM = Missing Value Source: Averaged Metar Reports

Daily Weather History Graph

Daily Weather History Graph

Search for Another Location

Airport or City:

Astronomy

Oct. 21, 2019 Rise Set
Actual Time 7:21 AM CDT 6:10 PM CDT
Civil Twilight 6:53 AM CDT 6:38 PM CDT
Nautical Twilight 6:20 AM CDT 7:11 PM CDT
Astronomical Twilight 5:47 AM CDT 7:44 PM CDT
Moon No Moon Rise 2:44 PM CDT (10/21)
Length of Visible Light 11h 45m
Length of Day
10h 48m
Waning Gibbous, 48% of the Moon is Illuminated
Oct 21
Waning Gibbous
Oct 27
New
Nov 4
First Quarter
Nov 12
Full
Nov 19
Last Quarter

Hourly Weather History & Observations

Time (CDT) Temp. Windchill Dew Point Humidity Pressure Visibility Wind Dir Wind Speed Gust Speed Precip Events Conditions
12:15 AM 51.4 °F - 41.9 °F 70% 29.80 in 10.0 mi East 8.1 mph - N/A   Clear
12:35 AM 51.3 °F - 41.9 °F 70% 29.79 in 10.0 mi East 8.1 mph - N/A   Clear
12:55 AM 50.9 °F - 42.3 °F 72% 29.74 in 10.0 mi East 12.7 mph - N/A   Clear
1:15 AM 50.2 °F - 43.2 °F 77% 29.77 in 10.0 mi ESE 10.4 mph - N/A   Scattered Clouds
1:35 AM 50.5 °F - 45.1 °F 82% 29.75 in 10.0 mi ESE 8.1 mph - N/A   Mostly Cloudy
1:55 AM 50.5 °F - 46.6 °F 86% 29.73 in 10.0 mi East 12.7 mph - N/A   Overcast
2:15 AM 50.9 °F - 48.0 °F 90% 29.72 in 10.0 mi East 13.8 mph - N/A   Overcast
2:35 AM 51.3 °F - 49.1 °F 92% 29.73 in 10.0 mi ESE 11.5 mph - N/A   Overcast
2:55 AM 51.4 °F - 49.5 °F 93% 29.71 in 10.0 mi East 15.0 mph - N/A   Overcast
3:15 AM 51.4 °F - 50.0 °F 95% 29.70 in 10.0 mi East 15.0 mph 20.7 mph N/A   Overcast
3:35 AM 51.8 °F - 50.4 °F 95% 29.68 in 10.0 mi East 13.8 mph - N/A   Overcast
3:55 AM 51.8 °F - 50.5 °F 95% 29.66 in 10.0 mi East 15.0 mph 18.4 mph N/A   Overcast
4:15 AM 51.8 °F - 50.9 °F 97% 29.64 in 10.0 mi East 13.8 mph - N/A   Overcast
4:35 AM 51.8 °F - 51.1 °F 97% 29.61 in 10.0 mi East 16.1 mph 24.2 mph N/A   Overcast
4:55 AM 51.8 °F - 51.1 °F 97% 29.59 in 10.0 mi East 18.4 mph 25.3 mph N/A   Overcast
5:15 AM 51.8 °F - 51.1 °F 97% 29.58 in 10.0 mi East 15.0 mph 25.3 mph N/A   Overcast
5:35 AM 51.8 °F - 51.3 °F 98% 29.56 in 10.0 mi East 16.1 mph 23.0 mph N/A   Overcast
5:55 AM 52.3 °F - 51.8 °F 98% 29.53 in 10.0 mi East 18.4 mph 24.2 mph N/A   Overcast
6:15 AM 52.7 °F - 52.0 °F 97% 29.53 in 10.0 mi East 15.0 mph 20.7 mph N/A   Overcast
6:35 AM 52.7 °F - 52.7 °F 100% 29.50 in 10.0 mi ESE 13.8 mph 19.6 mph 0.01 in   Overcast
7:15 AM 52.7 °F - 52.7 °F 100% 29.47 in 5.0 mi SE 6.9 mph - 0.04 in   Overcast
7:35 AM 52.7 °F - 52.7 °F 100% 29.43 in 5.0 mi East 10.4 mph - 0.11 in   Overcast
7:55 AM 53.6 °F - 53.6 °F 100% 29.40 in 7.0 mi ESE 15.0 mph 20.7 mph 0.19 in   Overcast
8:15 AM 53.8 °F - 53.8 °F 100% 29.39 in 7.0 mi ESE 17.3 mph 24.2 mph 0.01 in   Overcast
8:35 AM 54.9 °F - 54.9 °F 100% 29.38 in 7.0 mi SE 13.8 mph 24.2 mph 0.02 in   Overcast
8:55 AM 55.4 °F - 55.4 °F 100% 29.38 in 5.0 mi ESE 24.2 mph 32.2 mph 0.05 in   Overcast
9:15 AM 55.2 °F - 55.2 °F 100% 29.35 in 4.0 mi ESE 21.9 mph 28.8 mph 0.05 in   Overcast
9:35 AM 55.8 °F - 55.8 °F 100% 29.33 in 10.0 mi SE 23.0 mph 31.1 mph 0.07 in   Overcast
9:55 AM 56.5 °F - 56.5 °F 100% 29.31 in 10.0 mi SE 21.9 mph 28.8 mph 0.08 in   Overcast
10:15 AM 56.8 °F - 56.8 °F 100% 29.30 in 4.0 mi SE 20.7 mph 26.5 mph N/A   Overcast
10:35 AM 56.8 °F - 56.8 °F 100% 29.30 in 3.0 mi SSE 18.4 mph 23.0 mph 0.03 in   Overcast
10:55 AM 57.2 °F - 57.2 °F 100% 29.29 in 7.0 mi SSE 17.3 mph - 0.05 in   Overcast
11:35 AM 57.7 °F - 57.7 °F 100% 29.30 in 7.0 mi South 17.3 mph 26.5 mph 0.01 in   Overcast
11:55 AM 58.5 °F - 58.5 °F 100% 29.31 in 10.0 mi SSW 19.6 mph 29.9 mph 0.01 in   Overcast
12:15 PM 60.8 °F - 60.1 °F 97% 29.30 in 10.0 mi SW 21.9 mph 26.5 mph N/A   Mostly Cloudy
12:35 PM 61.0 °F - 58.6 °F 92% 29.30 in 10.0 mi SSW 16.1 mph 25.3 mph N/A   Mostly Cloudy
12:55 PM 61.2 °F - 56.5 °F 85% 29.30 in 10.0 mi SW 18.4 mph 28.8 mph N/A   Mostly Cloudy
1:15 PM 61.2 °F - 55.6 °F 82% 29.30 in 10.0 mi SW 20.7 mph 26.5 mph N/A   Mostly Cloudy
1:35 PM 60.3 °F - 51.4 °F 73% 29.30 in 10.0 mi SSW 25.3 mph 31.1 mph N/A   Mostly Cloudy
1:55 PM 60.1 °F - 48.0 °F 64% 29.31 in 10.0 mi SSW 24.2 mph 32.2 mph N/A   Scattered Clouds
2:15 PM 59.7 °F - 47.1 °F 63% 29.31 in 10.0 mi SW 25.3 mph 29.9 mph N/A   Mostly Cloudy
2:35 PM 59.9 °F - 45.3 °F 59% 29.31 in 10.0 mi SSW 26.5 mph 33.4 mph N/A   Mostly Cloudy
2:55 PM 59.4 °F - 44.4 °F 58% 29.31 in 10.0 mi SSW 24.2 mph 29.9 mph N/A   Overcast
3:15 PM 58.3 °F - 44.6 °F 60% 29.33 in 10.0 mi SSW 26.5 mph 31.1 mph N/A   Overcast
3:55 PM 56.8 °F - 43.2 °F 60% 29.36 in 10.0 mi SSW 24.2 mph 33.4 mph N/A   Overcast
4:15 PM 55.2 °F - 43.2 °F 64% 29.37 in 10.0 mi SW 20.7 mph 27.6 mph N/A   Overcast
4:35 PM 54.5 °F - 43.2 °F 66% 29.38 in 10.0 mi SSW 25.3 mph 32.2 mph N/A   Overcast
4:55 PM 53.6 °F - 43.0 °F 67% 29.38 in 10.0 mi SW 20.7 mph 31.1 mph N/A   Overcast
5:15 PM 53.1 °F - 43.3 °F 70% 29.39 in 10.0 mi SSW 21.9 mph 27.6 mph N/A   Overcast
5:35 PM 52.7 °F - 43.3 °F 70% 29.40 in 10.0 mi SW 20.7 mph 27.6 mph N/A   Overcast
5:55 PM 51.6 °F - 43.9 °F 75% 29.41 in 10.0 mi SSW 23.0 mph 32.2 mph N/A   Overcast
6:15 PM 50.2 °F - 43.3 °F 77% 29.41 in 10.0 mi SSW 24.2 mph 32.2 mph N/A   Overcast
6:35 PM 50.2 °F - 42.1 °F 74% 29.42 in 10.0 mi SSW 21.9 mph 28.8 mph N/A   Overcast
6:55 PM 50.0 °F - 41.2 °F 72% 29.42 in 10.0 mi SSW 24.2 mph 29.9 mph N/A   Overcast
7:15 PM 50.0 °F - 41.0 °F 71% 29.43 in 10.0 mi SSW 23.0 mph 32.2 mph N/A   Overcast
7:35 PM 50.0 °F - 40.5 °F 70% 29.43 in 10.0 mi SSW 21.9 mph 27.6 mph N/A   Overcast
7:55 PM 50.0 °F - 40.5 °F 70% 29.43 in 10.0 mi SSW 19.6 mph 26.5 mph N/A   Overcast
8:15 PM 50.0 °F - 40.8 °F 71% 29.42 in 10.0 mi South 19.6 mph 31.1 mph N/A   Overcast
8:35 PM 49.6 °F - 41.4 °F 73% 29.41 in 10.0 mi South 21.9 mph 28.8 mph N/A   Overcast
8:55 PM 48.9 °F - 42.8 °F 79% 29.41 in 10.0 mi SSW 20.7 mph 29.9 mph N/A   Overcast
9:15 PM 48.7 °F - 43.5 °F 82% 29.40 in 10.0 mi South 18.4 mph 28.8 mph N/A   Overcast
9:35 PM 49.1 °F - 43.7 °F 82% 29.39 in 10.0 mi South 19.6 mph 25.3 mph N/A   Overcast
9:55 PM 49.5 °F - 43.7 °F 81% 29.38 in 10.0 mi South 21.9 mph 28.8 mph N/A   Overcast
10:15 PM 49.6 °F - 43.3 °F 79% 29.38 in 10.0 mi South 25.3 mph 29.9 mph N/A   Overcast
10:35 PM 49.6 °F - 43.5 °F 79% 29.36 in 10.0 mi South 24.2 mph 32.2 mph N/A   Overcast
10:55 PM 49.5 °F - 43.9 °F 81% 29.35 in 10.0 mi South 24.2 mph 31.1 mph N/A   Overcast
11:15 PM 47.5 °F - 46.2 °F 95% 29.37 in 5.0 mi SW 25.3 mph 39.1 mph 0.01 in   Overcast
11:35 PM 45.9 °F 38.3 °F 45.7 °F 99% 29.36 in 10.0 mi SW 19.6 mph 27.6 mph 0.01 in   Overcast
11:55 PM 45.5 °F 38.9 °F 45.5 °F 100% 29.36 in 10.0 mi SW 15.0 mph 23.0 mph 0.01 in   Overcast